2018-099AF (43787 NORAD) Tracking and Keplerian Element Data

This shows tracking and keplerian element data for the satellite.

Feedback or suggestion? Click here.




ElementValue
Catalog43787
Name2018-099AF
Epoch Orbit433
Epoch Day1.73183417
Epoch Year2019
RAAN75.5753
Inclination97.7562
Eccentricity0.0014934
Argument of Perigee162.1737
Mean Anonmoly198.0011
Mean Motion14.95055217
Decay Rate5.79E-06
L11 43787U 18099AF 19001.73183417 .00000579 00000-0 58115-4 0 9996
L22 43787 97.7562 75.5753 0014934 162.1737 198.0011 14.95055217 4336

Live tracking and technical data element details for 2018-099AF (NORAD 43787). 2018-099AF can be tracked NOW for your location showing map with azimuth and elevation plus other details from your city location.

Track the satellite on the map from your city or location and see movement details for azimuth, elevation, latitude, longitude, range, height, and movement on the map or in text.







IsCatalogInMostPopularTable: catalog: 43787, numindb: 18
Update: records affected: 1



GetName: 43787 2018-099AF

Hit Count: updated at: Fri, 18 Jan 2019 22:54:35 GMT